Time,TemperatureF,DewpointF,PressureIn,WindDirection,WindDirectionDegrees,WindSpeedMPH,WindSpeedGustMPH,Humidity,HourlyPrecipIn,Conditions,Clouds,dailyrainin,SoftwareType,DateUTC
2013-03-03 00:02:00,52.0,40.0,30.03,WNW,295,3.0,4.0,62,-99.99,,,-99.99,,2013-03-03 05:02:00,
2013-03-03 00:12:00,52.0,40.0,30.02,WNW,294,3.0,6.0,64,-99.99,,,-99.99,,2013-03-03 05:12:00,
2013-03-03 00:22:00,52.0,40.0,30.02,WNW,294,3.0,6.0,64,-99.99,,,-99.99,,2013-03-03 05:22:00,
2013-03-03 00:32:00,52.0,40.0,30.02,NW,307,4.0,9.0,64,-99.99,,,-99.99,,2013-03-03 05:32:00,
2013-03-03 00:42:00,51.0,39.0,30.01,WNW,298,7.0,12.0,60,-99.99,,,-99.99,,2013-03-03 05:42:00,
2013-03-03 00:52:00,51.0,37.0,30.01,NW,318,6.0,10.0,59,-99.99,,,-99.99,,2013-03-03 05:52:00,
2013-03-03 01:02:00,51.0,37.0,30.01,NW,318,6.0,10.0,59,-99.99,,,-99.99,,2013-03-03 06:02:00,
2013-03-03 01:11:00,51.0,37.0,30.01,WNW,283,6.0,14.0,59,-99.99,,,-99.99,,2013-03-03 06:11:00,
2013-03-03 01:22:00,51.0,37.0,30.01,WNW,283,6.0,14.0,59,-99.99,,,-99.99,,2013-03-03 06:22:00,
2013-03-03 01:32:00,50.0,37.0,30.01,WNW,291,7.0,12.0,59,-99.99,,,-99.99,,2013-03-03 06:32:00,
2013-03-03 01:42:00,50.0,37.0,30.01,WNW,288,6.0,11.0,60,-99.99,,,-99.99,,2013-03-03 06:42:00,
2013-03-03 01:52:00,49.0,37.0,30.02,NW,319,4.0,7.0,62,-99.99,,,-99.99,,2013-03-03 06:52:00,
2013-03-03 02:01:00,49.0,37.0,30.02,NW,319,4.0,7.0,62,-99.99,,,-99.99,,2013-03-03 07:01:00,
2013-03-03 02:11:00,49.0,38.0,30.01,West,280,3.0,6.0,64,-99.99,,,-99.99,,2013-03-03 07:11:00,
2013-03-03 02:21:00,49.0,38.0,30.01,West,280,3.0,6.0,64,-99.99,,,-99.99,,2013-03-03 07:21:00,
2013-03-03 02:32:00,49.0,37.0,30.00,West,260,4.0,7.0,64,-99.99,,,-99.99,,2013-03-03 07:32:00,
2013-03-03 02:42:00,48.0,37.0,30.01,WNW,299,4.0,7.0,65,-99.99,,,-99.99,,2013-03-03 07:42:00,
2013-03-03 02:52:00,49.0,38.0,30.00,WNW,282,3.0,7.0,64,-99.99,,,-99.99,,2013-03-03 07:52:00,
2013-03-03 03:01:00,49.0,38.0,30.00,WNW,282,3.0,7.0,64,-99.99,,,-99.99,,2013-03-03 08:01:00,
2013-03-03 03:11:00,49.0,37.0,29.98,WNW,301,4.0,7.0,63,-99.99,,,-99.99,,2013-03-03 08:11:00,
2013-03-03 03:21:00,49.0,37.0,29.98,WNW,301,4.0,7.0,63,-99.99,,,-99.99,,2013-03-03 08:21:00,
2013-03-03 03:32:00,49.0,37.0,29.98,WNW,301,4.0,7.0,63,-99.99,,,-99.99,,2013-03-03 08:32:00,
2013-03-03 03:42:00,49.0,38.0,29.98,NW,318,3.0,6.0,63,-99.99,,,-99.99,,2013-03-03 08:42:00,
2013-03-03 03:54:00,49.0,38.0,29.98,WNW,291,3.0,6.0,65,-99.99,,,-99.99,,2013-03-03 08:54:00,
2013-03-03 04:02:00,49.0,38.0,29.98,WNW,291,3.0,6.0,65,-99.99,,,-99.99,,2013-03-03 09:02:00,
2013-03-03 04:12:00,49.0,38.0,29.98,WNW,294,3.0,6.0,65,-99.99,,,-99.99,,2013-03-03 09:12:00,
2013-03-03 04:21:00,49.0,38.0,29.98,WNW,294,3.0,6.0,65,-99.99,,,-99.99,,2013-03-03 09:21:00,
2013-03-03 04:32:00,49.0,39.0,29.97,WNW,294,2.0,4.0,66,-99.99,,,-99.99,,2013-03-03 09:32:00,
2013-03-03 04:42:00,49.0,39.0,29.97,West,276,2.0,4.0,67,-99.99,,,-99.99,,2013-03-03 09:42:00,
2013-03-03 04:52:00,49.0,39.0,29.97,NW,317,2.0,4.0,68,-99.99,,,-99.99,,2013-03-03 09:52:00,
2013-03-03 05:01:00,49.0,39.0,29.97,NW,317,2.0,4.0,68,-99.99,,,-99.99,,2013-03-03 10:01:00,
2013-03-03 05:12:00,49.0,40.0,29.97,NW,305,3.0,5.0,68,-99.99,,,-99.99,,2013-03-03 10:12:00,
2013-03-03 05:21:00,49.0,40.0,29.97,NW,305,3.0,5.0,68,-99.99,,,-99.99,,2013-03-03 10:21:00,
2013-03-03 05:32:00,49.0,40.0,29.97,NW,307,3.0,6.0,68,-99.99,,,-99.99,,2013-03-03 10:32:00,
2013-03-03 05:42:00,50.0,39.0,29.98,NW,308,5.0,9.0,66,-99.99,,,-99.99,,2013-03-03 10:42:00,
2013-03-03 05:52:00,50.0,38.0,29.98,NW,313,4.0,7.0,63,-99.99,,,-99.99,,2013-03-03 10:52:00,
2013-03-03 06:01:00,50.0,38.0,29.98,NW,313,4.0,7.0,63,-99.99,,,-99.99,,2013-03-03 11:01:00,
2013-03-03 06:11:00,50.0,38.0,29.99,WNW,302,4.0,10.0,62,-99.99,,,-99.99,,2013-03-03 11:11:00,
2013-03-03 06:22:00,50.0,38.0,29.99,WNW,302,4.0,10.0,62,-99.99,,,-99.99,,2013-03-03 11:22:00,
2013-03-03 06:32:00,50.0,38.0,29.99,WNW,302,4.0,10.0,62,-99.99,,,-99.99,,2013-03-03 11:32:00,
2013-03-03 06:42:00,50.0,38.0,29.99,WNW,300,3.0,7.0,62,-99.99,,,-99.99,,2013-03-03 11:42:00,
2013-03-03 06:53:00,50.0,38.0,29.99,WNW,300,3.0,7.0,62,-99.99,,,-99.99,,2013-03-03 11:53:00,
2013-03-03 07:02:00,50.0,38.0,29.99,WNW,300,3.0,7.0,62,-99.99,,,-99.99,,2013-03-03 12:02:00,
2013-03-03 07:11:00,49.0,37.0,30.00,NW,310,5.0,10.0,61,-99.99,,,-99.99,,2013-03-03 12:11:00,
2013-03-03 07:22:00,49.0,37.0,30.00,NW,310,5.0,10.0,61,-99.99,,,-99.99,,2013-03-03 12:22:00,
2013-03-03 07:32:00,49.0,37.0,30.00,NW,310,5.0,10.0,61,-99.99,,,-99.99,,2013-03-03 12:32:00,
2013-03-03 07:43:00,49.0,37.0,30.01,NW,308,3.0,7.0,64,-99.99,,,-99.99,,2013-03-03 12:43:00,
2013-03-03 07:53:00,49.0,38.0,30.01,NW,312,5.0,11.0,65,-99.99,,,-99.99,,2013-03-03 12:53:00,
2013-03-03 08:02:00,49.0,38.0,30.01,NW,312,5.0,11.0,65,-99.99,,,-99.99,,2013-03-03 13:02:00,
2013-03-03 08:11:00,49.0,38.0,30.01,NW,312,5.0,11.0,65,-99.99,,,-99.99,,2013-03-03 13:11:00,
2013-03-03 08:22:00,49.0,38.0,30.01,NW,312,5.0,11.0,65,-99.99,,,-99.99,,2013-03-03 13:22:00,
2013-03-03 08:32:00,48.0,37.0,30.02,NW,313,9.0,17.0,64,-99.99,,,-99.99,,2013-03-03 13:32:00,
2013-03-03 08:42:00,48.0,36.0,30.03,NW,317,10.0,19.0,63,-99.99,,,-99.99,,2013-03-03 13:42:00,
2013-03-03 08:52:00,48.0,36.0,30.03,NW,317,10.0,19.0,63,-99.99,,,-99.99,,2013-03-03 13:52:00,
2013-03-03 09:02:00,46.0,33.0,30.03,NW,324,9.0,16.0,60,-99.99,,,-99.99,,2013-03-03 14:02:00,
2013-03-03 09:11:00,43.0,29.0,30.03,WNW,300,8.0,14.0,57,-99.99,,,-99.99,,2013-03-03 14:11:00,
2013-03-03 09:22:00,43.0,29.0,30.03,WNW,300,8.0,14.0,57,-99.99,,,-99.99,,2013-03-03 14:22:00,
2013-03-03 09:32:00,43.0,29.0,30.03,WNW,300,8.0,14.0,57,-99.99,,,-99.99,,2013-03-03 14:32:00,
2013-03-03 09:42:00,44.0,29.0,30.04,NW,306,8.0,14.0,55,-99.99,,,-99.99,,2013-03-03 14:42:00,
2013-03-03 09:52:00,48.0,32.0,30.05,WNW,297,9.0,18.0,52,-99.99,,,-99.99,,2013-03-03 14:52:00,
2013-03-03 10:02:00,48.0,32.0,30.05,WNW,297,9.0,18.0,52,-99.99,,,-99.99,,2013-03-03 15:02:00,
2013-03-03 10:11:00,48.0,30.0,30.04,WNW,286,8.0,15.0,51,-99.99,,,-99.99,,2013-03-03 15:11:00,
2013-03-03 10:22:00,48.0,30.0,30.04,WNW,286,8.0,15.0,51,-99.99,,,-99.99,,2013-03-03 15:22:00,
2013-03-03 10:32:00,52.0,34.0,30.05,WNW,291,9.0,15.0,51,-99.99,,,-99.99,,2013-03-03 15:32:00,
2013-03-03 10:42:00,52.0,34.0,30.05,WNW,291,9.0,15.0,51,-99.99,,,-99.99,,2013-03-03 15:42:00,
2013-03-03 10:52:00,54.0,36.0,30.05,NW,312,10.0,17.0,50,-99.99,,,-99.99,,2013-03-03 15:52:00,
2013-03-03 11:02:00,54.0,36.0,30.05,NW,312,10.0,17.0,50,-99.99,,,-99.99,,2013-03-03 16:02:00,
2013-03-03 11:12:00,54.0,35.0,30.04,NW,305,9.0,17.0,48,-99.99,,,-99.99,,2013-03-03 16:12:00,
2013-03-03 11:22:00,54.0,35.0,30.04,NW,305,9.0,17.0,48,-99.99,,,-99.99,,2013-03-03 16:22:00,
2013-03-03 11:32:00,55.0,34.0,30.04,WNW,300,9.0,18.0,46,-99.99,,,-99.99,,2013-03-03 16:32:00,
2013-03-03 11:42:00,55.0,34.0,30.04,WNW,300,9.0,18.0,46,-99.99,,,-99.99,,2013-03-03 16:42:00,
2013-03-03 11:52:00,56.0,35.0,30.05,NW,316,10.0,17.0,45,-99.99,,,-99.99,,2013-03-03 16:52:00,
2013-03-03 12:01:00,56.0,35.0,30.05,NW,316,10.0,17.0,45,-99.99,,,-99.99,,2013-03-03 17:01:00,
2013-03-03 12:12:00,57.0,35.0,30.04,NW,306,8.0,16.0,44,-99.99,,,-99.99,,2013-03-03 17:12:00,
2013-03-03 12:22:00,57.0,35.0,30.04,NW,306,8.0,16.0,44,-99.99,,,-99.99,,2013-03-03 17:22:00,
2013-03-03 12:32:00,57.0,35.0,30.04,NW,306,8.0,16.0,44,-99.99,,,-99.99,,2013-03-03 17:32:00,
2013-03-03 12:42:00,57.0,35.0,30.02,NW,310,10.0,18.0,43,-99.99,,,-99.99,,2013-03-03 17:42:00,
2013-03-03 12:52:00,58.0,35.0,30.02,WNW,300,7.0,14.0,43,-99.99,,,-99.99,,2013-03-03 17:52:00,
2013-03-03 13:02:00,58.0,35.0,30.02,WNW,300,7.0,14.0,43,-99.99,,,-99.99,,2013-03-03 18:02:00,
2013-03-03 13:11:00,58.0,35.0,30.02,WNW,297,8.0,19.0,42,-99.99,,,-99.99,,2013-03-03 18:11:00,
2013-03-03 13:22:00,58.0,35.0,30.02,WNW,297,8.0,19.0,42,-99.99,,,-99.99,,2013-03-03 18:22:00,
2013-03-03 13:32:00,58.0,35.0,30.02,WNW,297,8.0,19.0,42,-99.99,,,-99.99,,2013-03-03 18:32:00,
2013-03-03 13:42:00,59.0,36.0,30.00,WNW,300,10.0,22.0,42,-99.99,,,-99.99,,2013-03-03 18:42:00,
2013-03-03 13:53:00,59.0,36.0,30.00,NW,307,11.0,23.0,42,-99.99,,,-99.99,,2013-03-03 18:53:00,
2013-03-03 14:02:00,59.0,36.0,30.00,NW,307,11.0,23.0,42,-99.99,,,-99.99,,2013-03-03 19:02:00,
2013-03-03 14:11:00,59.0,36.0,30.00,NW,307,11.0,23.0,42,-99.99,,,-99.99,,2013-03-03 19:11:00,
2013-03-03 14:22:00,59.0,36.0,30.00,NW,307,11.0,23.0,42,-99.99,,,-99.99,,2013-03-03 19:22:00,
2013-03-03 14:32:00,58.0,36.0,29.99,WNW,283,11.0,22.0,43,-99.99,,,-99.99,,2013-03-03 19:32:00,
2013-03-03 14:42:00,58.0,36.0,29.99,WNW,283,11.0,22.0,43,-99.99,,,-99.99,,2013-03-03 19:42:00,
2013-03-03 14:52:00,59.0,37.0,29.99,West,280,11.0,20.0,43,-99.99,,,-99.99,,2013-03-03 19:52:00,
2013-03-03 15:01:00,59.0,37.0,29.99,West,280,11.0,20.0,43,-99.99,,,-99.99,,2013-03-03 20:01:00,
2013-03-03 15:11:00,59.0,37.0,29.99,WNW,299,11.0,22.0,43,-99.99,,,-99.99,,2013-03-03 20:11:00,
2013-03-03 15:22:00,59.0,37.0,29.99,WNW,299,11.0,22.0,43,-99.99,,,-99.99,,2013-03-03 20:22:00,
2013-03-03 15:32:00,59.0,37.0,29.99,WNW,299,11.0,22.0,43,-99.99,,,-99.99,,2013-03-03 20:32:00,
2013-03-03 15:42:00,59.0,37.0,29.99,WNW,299,11.0,22.0,43,-99.99,,,-99.99,,2013-03-03 20:42:00,
2013-03-03 15:53:00,60.0,37.0,29.99,WNW,289,10.0,21.0,42,-99.99,,,-99.99,,2013-03-03 20:53:00,
2013-03-03 16:02:00,60.0,37.0,29.99,WNW,289,10.0,21.0,42,-99.99,,,-99.99,,2013-03-03 21:02:00,
2013-03-03 16:12:00,58.0,36.0,29.99,NW,309,11.0,22.0,42,-99.99,,,-99.99,,2013-03-03 21:12:00,
2013-03-03 16:22:00,58.0,36.0,29.99,NW,309,11.0,22.0,42,-99.99,,,-99.99,,2013-03-03 21:22:00,
2013-03-03 16:32:00,58.0,36.0,29.99,NW,309,11.0,22.0,42,-99.99,,,-99.99,,2013-03-03 21:32:00,
2013-03-03 16:42:00,60.0,37.0,29.99,WNW,301,10.0,17.0,42,-99.99,,,-99.99,,2013-03-03 21:42:00,
2013-03-03 16:52:00,59.0,37.0,30.00,WNW,298,10.0,21.0,43,-99.99,,,-99.99,,2013-03-03 21:52:00,
2013-03-03 17:02:00,59.0,37.0,30.00,WNW,298,10.0,21.0,43,-99.99,,,-99.99,,2013-03-03 22:02:00,
2013-03-03 17:11:00,59.0,36.0,30.00,WNW,286,9.0,20.0,42,-99.99,,,-99.99,,2013-03-03 22:11:00,
2013-03-03 17:22:00,59.0,36.0,30.00,WNW,286,9.0,20.0,42,-99.99,,,-99.99,,2013-03-03 22:22:00,
2013-03-03 17:32:00,59.0,36.0,30.01,WNW,294,10.0,18.0,43,-99.99,,,-99.99,,2013-03-03 22:32:00,
2013-03-03 17:42:00,59.0,37.0,30.01,WNW,291,10.0,20.0,43,-99.99,,,-99.99,,2013-03-03 22:42:00,
2013-03-03 17:53:00,58.0,37.0,30.01,WNW,292,10.0,23.0,44,-99.99,,,-99.99,,2013-03-03 22:53:00,
2013-03-03 18:02:00,58.0,37.0,30.01,WNW,292,10.0,23.0,44,-99.99,,,-99.99,,2013-03-03 23:02:00,
2013-03-03 18:11:00,58.0,37.0,30.02,WNW,298,9.0,21.0,46,-99.99,,,-99.99,,2013-03-03 23:11:00,
2013-03-03 18:22:00,58.0,37.0,30.02,WNW,298,9.0,21.0,46,-99.99,,,-99.99,,2013-03-03 23:22:00,
2013-03-03 18:32:00,58.0,37.0,30.02,WNW,298,9.0,21.0,46,-99.99,,,-99.99,,2013-03-03 23:32:00,
2013-03-03 18:42:00,58.0,37.0,30.02,WNW,298,9.0,21.0,46,-99.99,,,-99.99,,2013-03-03 23:42:00,
2013-03-03 18:52:00,56.0,37.0,30.04,WNW,298,10.0,21.0,48,-99.99,,,-99.99,,2013-03-03 23:52:00,
2013-03-03 19:02:00,56.0,37.0,30.04,WNW,298,10.0,21.0,48,-99.99,,,-99.99,,2013-03-04 00:02:00,
2013-03-03 19:11:00,56.0,37.0,30.05,NW,304,8.0,17.0,49,-99.99,,,-99.99,,2013-03-04 00:11:00,
2013-03-03 19:22:00,56.0,37.0,30.05,NW,304,8.0,17.0,49,-99.99,,,-99.99,,2013-03-04 00:22:00,
2013-03-03 19:32:00,56.0,37.0,30.05,NW,304,8.0,17.0,49,-99.99,,,-99.99,,2013-03-04 00:32:00,
2013-03-03 19:42:00,56.0,37.0,30.05,NW,304,8.0,17.0,49,-99.99,,,-99.99,,2013-03-04 00:42:00,
2013-03-03 19:52:00,54.0,38.0,30.06,WNW,299,7.0,16.0,53,-99.99,,,-99.99,,2013-03-04 00:52:00,
2013-03-03 20:02:00,54.0,38.0,30.06,WNW,299,7.0,16.0,53,-99.99,,,-99.99,,2013-03-04 01:02:00,
2013-03-03 20:12:00,54.0,38.0,30.07,WNW,296,7.0,13.0,53,-99.99,,,-99.99,,2013-03-04 01:12:00,
2013-03-03 20:22:00,54.0,38.0,30.07,WNW,296,7.0,13.0,53,-99.99,,,-99.99,,2013-03-04 01:22:00,
2013-03-03 20:32:00,53.0,38.0,30.08,WNW,289,6.0,13.0,55,-99.99,,,-99.99,,2013-03-04 01:32:00,
2013-03-03 20:42:00,53.0,38.0,30.08,WNW,297,7.0,13.0,56,-99.99,,,-99.99,,2013-03-04 01:42:00,
2013-03-03 20:52:00,53.0,38.0,30.09,WNW,296,7.0,16.0,57,-99.99,,,-99.99,,2013-03-04 01:52:00,
2013-03-03 21:01:00,53.0,38.0,30.09,WNW,296,7.0,16.0,57,-99.99,,,-99.99,,2013-03-04 02:01:00,
2013-03-03 21:11:00,53.0,38.0,30.09,WNW,297,7.0,18.0,57,-99.99,,,-99.99,,2013-03-04 02:11:00,
2013-03-03 21:22:00,53.0,38.0,30.09,WNW,297,7.0,18.0,57,-99.99,,,-99.99,,2013-03-04 02:22:00,
2013-03-03 21:32:00,52.0,38.0,30.11,WNW,293,6.0,11.0,59,-99.99,,,-99.99,,2013-03-04 02:32:00,
2013-03-03 21:42:00,52.0,38.0,30.11,WNW,293,6.0,11.0,59,-99.99,,,-99.99,,2013-03-04 02:42:00,
2013-03-03 21:53:00,52.0,39.0,30.11,WNW,301,6.0,14.0,60,-99.99,,,-99.99,,2013-03-04 02:53:00,
2013-03-03 22:02:00,52.0,39.0,30.11,WNW,301,6.0,14.0,60,-99.99,,,-99.99,,2013-03-04 03:02:00,
2013-03-03 22:11:00,51.0,39.0,30.12,WNW,299,6.0,14.0,61,-99.99,,,-99.99,,2013-03-04 03:11:00,
2013-03-03 22:22:00,51.0,39.0,30.12,WNW,299,6.0,14.0,61,-99.99,,,-99.99,,2013-03-04 03:22:00,
2013-03-03 22:32:00,51.0,39.0,30.12,NW,307,6.0,12.0,61,-99.99,,,-99.99,,2013-03-04 03:32:00,
2013-03-03 22:42:00,51.0,38.0,30.13,WNW,299,6.0,14.0,61,-99.99,,,-99.99,,2013-03-04 03:42:00,
2013-03-03 22:53:00,51.0,38.0,30.13,WNW,299,7.0,15.0,61,-99.99,,,-99.99,,2013-03-04 03:53:00,
2013-03-03 23:01:00,51.0,38.0,30.13,WNW,299,7.0,15.0,61,-99.99,,,-99.99,,2013-03-04 04:01:00,
2013-03-03 23:11:00,50.0,38.0,30.14,WNW,298,7.0,13.0,61,-99.99,,,-99.99,,2013-03-04 04:11:00,
2013-03-03 23:22:00,50.0,38.0,30.14,WNW,298,7.0,13.0,61,-99.99,,,-99.99,,2013-03-04 04:22:00,
2013-03-03 23:32:00,50.0,37.0,30.14,WNW,298,7.0,16.0,61,-99.99,,,-99.99,,2013-03-04 04:32:00,
2013-03-03 23:42:00,50.0,37.0,30.14,WNW,299,6.0,13.0,62,-99.99,,,-99.99,,2013-03-04 04:42:00,
2013-03-03 23:52:00,50.0,37.0,30.15,NW,314,7.0,13.0,62,-99.99,,,-99.99,,2013-03-04 04:52:00,